Satellite-Ground Cal/Val Region Overpasses Predictions

Prediction of Satellite NPP Overpassing Cal/Val Region: PacNW

Region Location: (Latitude: 10.00, Longitude: 139.50) to (Latitude: 22.70, Longitude: 165.60).

Table of predicted overpasses for the next 14.0 days since TLE Epoch: 6/15/2012
Interval Starting Time Starting Location Ending Time Ending Location
1 06/16/2012 02:43:56 ( 10.02, 158.33) 06/16/2012 02:47:31 ( 22.64, 155.34)
2 06/16/2012 15:15:49 ( 22.66, 155.56) 06/16/2012 15:19:24 ( 10.04, 152.56)
3 06/17/2012 02:24:54 ( 10.05, 163.09) 06/17/2012 02:28:29 ( 22.68, 160.09)
4 06/17/2012 14:56:46 ( 22.68, 160.32) 06/17/2012 15:00:22 ( 10.00, 157.31)
5 06/18/2012 02:08:34 ( 19.67, 165.59) 06/18/2012 02:09:25 ( 22.66, 164.85)
6 06/18/2012 03:47:20 ( 10.04, 142.48) 06/18/2012 03:50:53 ( 22.55, 139.51)
7 06/18/2012 14:37:43 ( 22.65, 165.08) 06/18/2012 14:41:18 ( 10.03, 162.08)
8 06/18/2012 16:19:12 ( 22.70, 139.71) 06/18/2012 16:19:26 ( 21.87, 139.51)
9 06/19/2012 03:28:17 ( 10.02, 147.24) 06/19/2012 03:31:52 ( 22.64, 144.24)
10 06/19/2012 16:00:10 ( 22.66, 144.47) 06/19/2012 16:03:45 ( 10.04, 141.47)
11 06/20/2012 03:09:14 ( 10.05, 152.00) 06/20/2012 03:12:49 ( 22.68, 149.00)
12 06/20/2012 15:41:06 ( 22.69, 149.23) 06/20/2012 15:44:42 ( 10.01, 146.22)
13 06/21/2012 02:50:11 ( 10.03, 156.76) 06/21/2012 02:53:46 ( 22.65, 153.76)
14 06/21/2012 15:22:04 ( 22.65, 153.99) 06/21/2012 15:25:39 ( 10.04, 150.99)
15 06/22/2012 02:31:07 ( 10.00, 161.53) 06/22/2012 02:34:43 ( 22.69, 158.52)
16 06/22/2012 15:03:00 ( 22.68, 158.75) 06/22/2012 15:06:36 ( 10.00, 155.74)
17 06/23/2012 02:12:56 ( 13.03, 165.59) 06/23/2012 02:15:40 ( 22.66, 163.28)
18 06/23/2012 03:53:35 ( 10.05, 140.91) 06/23/2012 03:55:18 ( 16.10, 139.50)
19 06/23/2012 14:43:58 ( 22.65, 163.51) 06/23/2012 14:47:33 ( 10.03, 160.51)
20 06/24/2012 03:34:32 ( 10.02, 145.67) 06/24/2012 03:38:07 ( 22.65, 142.67)
21 06/24/2012 14:28:05 ( 11.47, 165.60) 06/24/2012 14:28:30 ( 10.00, 165.26)
22 06/24/2012 16:06:24 ( 22.67, 142.90) 06/24/2012 16:09:59 ( 10.05, 139.90)
23
